Palma de Mallorca, Spain

3:42 PM CEST on October 17, 2017 (GMT +0200)
Palma De Mallorca

Weather History for LEPA - June, 2013

Change the Weather History Date:

Monday, June 24, 2013

  Actual Average Record
Temperature  
Mean Temperature 72 °F -  
Max Temperature 77 °F 84 °F 98 °F (2003)
Min Temperature 66 °F 63 °F 50 °F (2003)
Cooling Degree Days 6    
Growing Degree Days 22 (Base 50)    
Moisture  
Dew Point 60 °F    
Average Humidity 67    
Maximum Humidity 83    
Minimum Humidity 48    
Precipitation  
Precipitation 0.00 in 0.01 in - ()
Sea Level Pressure  
Sea Level Pressure 30.19 in    
Wind  
Wind Speed 5 mph ()    
Max Wind Speed 12 mph    
Max Gust Speed 14 mph    
Visibility 6.4 miles    
Events      
Averages and records for this station are not official NWS values.
T = Trace of Precipitation, MM = Missing Value Source: Averaged Metar Reports

Daily Weather History Graph

Daily Weather History Graph

Search for Another Location

Airport or City:

Trip Planner

Search our weather history database for the weather conditions in past years. The results will help you decide how hot, cold, wet, or windy it might be!

Date:

Astronomy

Jun. 24, 2013 Rise Set
Actual Time 6:22 AM CEST 9:20 PM CEST
Civil Twilight 5:50 AM CEST 9:52 PM CEST
Nautical Twilight 5:08 AM CEST 10:34 PM CEST
Astronomical Twilight 4:21 AM CEST 11:21 PM CEST
Moon 10:11 PM CEST (6/24) 7:31 AM CEST (6/24)
Length of Visible Light 16h 02m
Length of Day
14h 57m
Full, 99% of the Moon is Illuminated
Jun 24
Full
Jun 30
Last Quarter
Jul 8
New
Jul 16
First Quarter
Jul 22
Full

Hourly Weather History & Observations

Time (CEST) Temp. Dew Point Humidity Pressure Visibility Wind Dir Wind Speed Gust Speed Precip Events Conditions
12:00 AM 71.6 °F 64.4 °F 78% 30.15 in 6.2 mi East 2.3 mph - N/A   Partly Cloudy
12:30 AM 69.8 °F 62.6 °F 78% 30.18 in 6.2 mi ENE 2.3 mph - N/A   Partly Cloudy
1:00 AM 69.8 °F 64.4 °F 83% 30.18 in 6.2 mi NNE 3.5 mph - N/A   Partly Cloudy
1:30 AM 69.8 °F 64.4 °F 83% 30.18 in 6.2 mi ENE 6.9 mph - N/A   Partly Cloudy
2:00 AM 69 °F 63 °F 75% 30.19 in 16 mi ENE 8.1 mph - -   Scattered Clouds
2:00 AM 69.8 °F 64.4 °F 83% 30.18 in 6.2 mi ENE 5.8 mph - N/A   Partly Cloudy
2:30 AM 69.8 °F 64.4 °F 83% 30.18 in 6.2 mi ENE 6.9 mph - N/A   Partly Cloudy
3:00 AM 69.8 °F 64.4 °F 83% 30.18 in 6.2 mi ENE 6.9 mph - N/A   Scattered Clouds
3:30 AM 69.8 °F 62.6 °F 78% 30.18 in 6.2 mi NE 8.1 mph - N/A   Scattered Clouds
4:00 AM 69.8 °F 60.8 °F 73% 30.18 in 6.2 mi ENE 10.4 mph - N/A   Scattered Clouds
4:30 AM 69.8 °F 60.8 °F 73% 30.18 in 6.2 mi ENE 6.9 mph - N/A   Scattered Clouds
5:00 AM 68.0 °F 60.8 °F 78% 30.15 in 6.2 mi East 3.5 mph - N/A   Scattered Clouds
5:30 AM 68.0 °F 60.8 °F 78% 30.15 in 6.2 mi ENE 3.5 mph - N/A   Scattered Clouds
6:00 AM 68.0 °F 59.0 °F 73% 30.18 in 6.2 mi ENE 6.9 mph - N/A   Scattered Clouds
6:30 AM 68.0 °F 59.0 °F 73% 30.18 in 6.2 mi ENE 2.3 mph - N/A   Scattered Clouds
7:00 AM 68.0 °F 59.0 °F 73% 30.18 in 6.2 mi ENE 3.5 mph - N/A   Scattered Clouds
7:30 AM 68.0 °F 59.0 °F 73% 30.18 in 6.2 mi ENE 3.5 mph - N/A   Scattered Clouds
8:00 AM 69 °F 58 °F 58% 30.20 in 7 mi ENE 9.2 mph - -   Mostly Cloudy
8:00 AM 69.8 °F 59.0 °F 68% 30.18 in 6.2 mi ENE 4.6 mph - N/A   Scattered Clouds
8:30 AM 69.8 °F 59.0 °F 68% 30.18 in 6.2 mi ENE 5.8 mph - N/A   Scattered Clouds
9:00 AM 71.6 °F 59.0 °F 64% 30.21 in 6.2 mi ENE 9.2 mph - N/A   Scattered Clouds
9:30 AM 71.6 °F 59.0 °F 64% 30.21 in 6.2 mi ENE 5.8 mph - N/A   Scattered Clouds
10:00 AM 73.4 °F 59.0 °F 61% 30.21 in 6.2 mi ENE 8.1 mph - N/A   Scattered Clouds
10:30 AM 73.4 °F 59.0 °F 61% 30.21 in 6.2 mi East 4.6 mph - N/A   Scattered Clouds
11:00 AM 75.2 °F 59.0 °F 57% 30.21 in 6.2 mi ENE 5.8 mph - N/A   Scattered Clouds
11:30 AM 75.2 °F 59.0 °F 57% 30.21 in 6.2 mi ENE 5.8 mph - N/A   Scattered Clouds
12:00 PM 77.0 °F 59.0 °F 54% 30.21 in 6.2 mi NE 9.2 mph - N/A   Scattered Clouds
12:30 PM 75.2 °F 59.0 °F 57% 30.21 in 6.2 mi NE 11.5 mph - N/A   Scattered Clouds
1:00 PM 75.2 °F 59.0 °F 57% 30.21 in 6.2 mi ENE 5.8 mph - N/A   Scattered Clouds
1:30 PM 75.2 °F 60.8 °F 61% 30.21 in 6.2 mi NE 1.2 mph - N/A   Scattered Clouds
2:00 PM 76 °F 60 °F 48% 30.22 in 9 mi SSW 9.2 mph - -   Mostly Cloudy
2:00 PM 77.0 °F 60.8 °F 57% 30.21 in 6.2 mi NE 4.6 mph - N/A   Mostly Cloudy
2:30 PM 75.2 °F 59.0 °F 57% 30.21 in 6.2 mi SSE 4.6 mph - N/A   Mostly Cloudy
3:00 PM 75.2 °F 59.0 °F 57% 30.21 in 6.2 mi SSE 6.9 mph - N/A   Mostly Cloudy
3:30 PM 75.2 °F 60.8 °F 61% 30.21 in 6.2 mi ESE 4.6 mph - N/A   Scattered Clouds
4:00 PM 77.0 °F 60.8 °F 57% 30.21 in 6.2 mi SSE 2.3 mph 13.8 mph N/A   Scattered Clouds
4:30 PM 75.2 °F 60.8 °F 61% 30.21 in 6.2 mi SW 11.5 mph - N/A   Scattered Clouds
5:00 PM 75.2 °F 60.8 °F 61% 30.21 in 5.0 mi SW 11.5 mph - N/A   Scattered Clouds
5:30 PM 73.4 °F 60.8 °F 65% 30.18 in 5.6 mi SW 11.5 mph - N/A   Scattered Clouds
6:00 PM 73.4 °F 60.8 °F 65% 30.18 in 6.2 mi SW 11.5 mph - N/A   Scattered Clouds
6:30 PM 73.4 °F 60.8 °F 65% 30.18 in 6.2 mi SW 9.2 mph - N/A   Scattered Clouds
7:00 PM 71.6 °F 60.8 °F 69% 30.18 in 6.2 mi SW 8.1 mph - N/A   Scattered Clouds
7:30 PM 73.4 °F 60.8 °F 65% 30.18 in 6.2 mi SW 6.9 mph - N/A   Scattered Clouds
8:00 PM 72 °F 59 °F 54% 30.19 in 6 mi SW 8.1 mph - -   Mostly Cloudy
8:00 PM 71.6 °F 60.8 °F 69% 30.18 in 6.2 mi WSW 6.9 mph - N/A   Scattered Clouds
8:30 PM 71.6 °F 60.8 °F 69% 30.18 in 6.2 mi SW 8.1 mph - N/A   Scattered Clouds
9:00 PM 71.6 °F 60.8 °F 69% 30.18 in 6.2 mi SSW 1.2 mph - N/A   Scattered Clouds
9:30 PM 69.8 °F 57.2 °F 64% 30.18 in 6.2 mi ENE 6.9 mph - N/A   Scattered Clouds
10:00 PM 69.8 °F 57.2 °F 64% 30.21 in 6.2 mi NE 9.2 mph - N/A   Scattered Clouds
10:30 PM 68.0 °F 57.2 °F 68% 30.21 in 6.2 mi ENE 6.9 mph - N/A   Scattered Clouds
11:00 PM 68.0 °F 57.2 °F 68% 30.24 in 6.2 mi East 4.6 mph - N/A   Scattered Clouds
11:30 PM 68.0 °F 57.2 °F 68% 30.24 in 6.2 mi ENE 4.6 mph - N/A   Scattered Clouds